Big Rapids, MI

11:24 AM EDT on October 19, 2019 (GMT -0400)
Roben-Hood

Weather History for KRQB - September, 2019

Change the Weather History Date:

Tuesday, September 17, 2019

  Actual Average Record
Temperature  
Mean Temperature 66 °F -  
Max Temperature 74 °F 69 °F 86 °F (2018)
Min Temperature 58 °F 47 °F 31 °F (1990)
Cooling Degree Days 1    
Growing Degree Days 16 (Base 50)    
Moisture  
Dew Point 60 °F    
Average Humidity 85    
Maximum Humidity 98    
Minimum Humidity 59    
Precipitation  
Precipitation 0.00 in - - ()
Sea Level Pressure  
Sea Level Pressure 30.20 in    
Wind  
Wind Speed 4 mph (SE)    
Max Wind Speed 10 mph    
Max Gust Speed 16 mph    
Visibility 8 miles    
Events      
Averages and records for this station are not official NWS values.
T = Trace of Precipitation, MM = Missing Value Source: NWS Daily Summary

Daily Weather History Graph

Daily Weather History Graph

Search for Another Location

Airport or City:

Astronomy

Sep. 17, 2019 Rise Set
Actual Time 7:23 AM EDT 7:48 PM EDT
Civil Twilight 6:54 AM EDT 8:17 PM EDT
Nautical Twilight 6:20 AM EDT 8:51 PM EDT
Astronomical Twilight 5:45 AM EDT 9:26 PM EDT
Moon 9:45 PM EDT (9/17) 10:32 AM EDT (9/17)
Length of Visible Light 13h 23m
Length of Day
12h 25m
Waning Gibbous, 89% of the Moon is Illuminated
Sep 17
Waning Gibbous
Sep 21
Last Quarter
Sep 28
New
Oct 5
First Quarter
Oct 13
Full

Hourly Weather History & Observations

Time (EDT) Temp. Dew Point Humidity Pressure Visibility Wind Dir Wind Speed Gust Speed Precip Events Conditions
12:00 AM 61.0 °F 59.5 °F 95% 30.17 in 10.0 mi Calm Calm - N/A   Mostly Cloudy
12:16 AM 61.3 °F 59.9 °F 95% 30.17 in 10.0 mi Calm Calm - N/A   Overcast
12:35 AM 62.8 °F 61.7 °F 96% 30.17 in 5.0 mi Calm Calm - N/A   Overcast
12:55 AM 63.1 °F 62.1 °F 96% 30.18 in 5.0 mi South 4.6 mph - N/A   Overcast
1:19 AM 63.5 °F 62.2 °F 96% 30.17 in 7.0 mi SSE 3.5 mph - N/A   Overcast
1:37 AM 63.5 °F 62.2 °F 96% 30.18 in 7.0 mi Calm Calm - N/A   Overcast
1:55 AM 62.2 °F 61.2 °F 96% 30.17 in 10.0 mi ESE 4.6 mph - N/A   Overcast
1:56 AM 62.1 °F 61.0 °F 96% 30.17 in 10.0 mi SE 4.6 mph - N/A   Overcast
2:15 AM 61.7 °F 60.6 °F 96% 30.18 in 7.0 mi SE 4.6 mph - N/A   Overcast
2:37 AM 61.2 °F 60.3 °F 97% 30.18 in 1.2 mi Calm Calm - N/A   Overcast
2:55 AM 61.2 °F 60.4 °F 97% 30.18 in 1.0 mi SE 3.5 mph - N/A   Overcast
2:56 AM 61.2 °F 60.4 °F 97% 30.18 in 1.0 mi SE 3.5 mph - N/A   Overcast
3:15 AM 61.2 °F 60.4 °F 97% 30.18 in 2.5 mi ESE 9.2 mph 16.1 mph N/A   Overcast
3:16 AM 61.2 °F 60.4 °F 97% 30.18 in 2.5 mi SE 6.9 mph 16.1 mph N/A   Overcast
3:38 AM 61.2 °F 60.4 °F 97% 30.18 in 1.8 mi SSE 4.6 mph - N/A   Overcast
3:55 AM 61.0 °F 60.3 °F 97% 30.18 in 0.8 mi SE 4.6 mph - N/A   Overcast
4:15 AM 60.8 °F 59.9 °F 97% 30.19 in 1.2 mi SE 4.6 mph - N/A   Overcast
4:39 AM 60.8 °F 60.1 °F 97% 30.19 in 1.2 mi SE 4.6 mph - N/A   Overcast
4:56 AM 60.8 °F 60.1 °F 97% 30.19 in 2.0 mi SE 5.8 mph - N/A   Overcast
5:15 AM 60.8 °F 60.1 °F 97% 30.19 in 4.0 mi SE 6.9 mph - N/A   Overcast
5:16 AM 60.8 °F 60.1 °F 97% 30.19 in 4.0 mi SE 6.9 mph - N/A   Overcast
5:35 AM 60.8 °F 60.1 °F 97% 30.19 in 3.0 mi SE 6.9 mph - N/A   Overcast
5:40 AM 60.8 °F 60.1 °F 97% 30.19 in 3.0 mi SE 4.6 mph - N/A   Overcast
5:57 AM 60.8 °F 60.3 °F 98% 30.20 in 1.5 mi East 3.5 mph - N/A   Overcast
6:15 AM 60.8 °F 60.1 °F 97% 30.21 in 4.0 mi SE 5.8 mph - N/A   Overcast
6:35 AM 60.8 °F 60.1 °F 97% 30.21 in 1.8 mi Calm Calm - N/A   Overcast
6:36 AM 60.8 °F 60.1 °F 97% 30.21 in 1.5 mi Calm Calm - N/A   Overcast
7:16 AM 60.1 °F 59.5 °F 98% 30.23 in 4.0 mi ESE 3.5 mph - N/A   Overcast
7:35 AM 60.1 °F 59.5 °F 98% 30.24 in 5.0 mi ESE 5.8 mph - N/A   Overcast
7:59 AM 59.9 °F 59.2 °F 97% 30.24 in 7.0 mi ESE 4.6 mph - N/A   Overcast
8:16 AM 59.9 °F 59.0 °F 97% 30.24 in 7.0 mi East 5.8 mph - N/A   Overcast
8:35 AM 59.9 °F 59.0 °F 97% 30.25 in 5.0 mi ESE 5.8 mph - N/A   Overcast
8:36 AM 59.7 °F 59.0 °F 97% 30.25 in 5.0 mi East 5.8 mph - N/A   Overcast
8:55 AM 59.5 °F 58.8 °F 97% 30.24 in 7.0 mi ESE 4.6 mph - N/A   Overcast
9:17 AM 59.9 °F 59.0 °F 97% 30.25 in 7.0 mi SSE 5.8 mph - N/A   Overcast
9:35 AM 60.3 °F 59.2 °F 96% 30.24 in 10.0 mi SE 4.6 mph - N/A   Overcast
9:36 AM 60.3 °F 59.0 °F 96% 30.24 in 10.0 mi SSE 4.6 mph - N/A   Overcast
9:55 AM 60.6 °F 59.0 °F 94% 30.24 in 10.0 mi SSE 4.6 mph - N/A   Overcast
9:56 AM 60.6 °F 59.0 °F 94% 30.24 in 10.0 mi SSE 3.5 mph - N/A   Overcast
10:18 AM 61.3 °F 59.0 °F 92% 30.24 in 10.0 mi SE 4.6 mph - N/A   Overcast
10:36 AM 61.9 °F 59.0 °F 90% 30.24 in 10.0 mi SSE 3.5 mph - N/A   Overcast
10:55 AM 62.6 °F 59.5 °F 90% 30.24 in 10.0 mi Calm Calm - N/A   Overcast
10:56 AM 62.6 °F 59.4 °F 89% 30.24 in 10.0 mi Calm Calm - N/A   Overcast
11:15 AM 63.1 °F 59.9 °F 89% 30.23 in 10.0 mi SSE 3.5 mph - N/A   Overcast
11:20 AM 63.9 °F 60.3 °F 88% 30.23 in 10.0 mi SSE 5.8 mph - N/A   Overcast
11:37 AM 64.6 °F 60.1 °F 85% 30.24 in 10.0 mi South 6.9 mph - N/A   Mostly Cloudy
11:55 AM 65.7 °F 60.4 °F 83% 30.23 in 10.0 mi SSE 8.1 mph - N/A   Mostly Cloudy
12:15 PM 66.0 °F 60.3 °F 82% 30.23 in 10.0 mi SSE 10.4 mph - N/A   Mostly Cloudy
12:16 PM 66.2 °F 60.3 °F 81% 30.23 in 10.0 mi South 10.4 mph - N/A   Mostly Cloudy
12:38 PM 67.3 °F 60.3 °F 78% 30.22 in 10.0 mi SSE 6.9 mph - N/A   Scattered Clouds
1:15 PM 68.5 °F 59.4 °F 72% 30.23 in 10.0 mi South 3.5 mph - N/A   Clear
1:16 PM 68.5 °F 59.5 °F 73% 30.23 in 10.0 mi South 5.8 mph - N/A   Clear
1:39 PM 69.8 °F 60.1 °F 71% 30.23 in 10.0 mi East 6.9 mph - N/A   Clear
1:56 PM 70.9 °F 60.3 °F 69% 30.23 in 10.0 mi SE 5.8 mph - N/A   Clear
2:16 PM 71.1 °F 58.8 °F 65% 30.22 in 10.0 mi SSE 4.6 mph - N/A   Clear
2:35 PM 71.6 °F 60.3 °F 67% 30.21 in 10.0 mi East 3.5 mph - N/A   Clear
2:39 PM 71.6 °F 60.3 °F 67% 30.21 in 10.0 mi ESE 5.8 mph - N/A   Clear
2:57 PM 72.7 °F 59.5 °F 63% 30.21 in 10.0 mi East 4.6 mph - N/A   Clear
3:15 PM 72.9 °F 59.5 °F 63% 30.21 in 10.0 mi ESE 5.8 mph - N/A   Clear
3:16 PM 72.9 °F 59.4 °F 62% 30.21 in 10.0 mi ESE 4.6 mph - N/A   Clear
3:35 PM 73.2 °F 59.0 °F 61% 30.21 in 10.0 mi East 6.9 mph - N/A   Clear
3:40 PM 73.4 °F 58.8 °F 60% 30.19 in 10.0 mi ESE 6.9 mph - N/A   Clear
3:57 PM 74.3 °F 59.4 °F 60% 30.19 in 10.0 mi SE 9.2 mph - N/A   Clear
4:15 PM 74.3 °F 59.0 °F 59% 30.19 in 10.0 mi East 8.1 mph - N/A   Clear
4:16 PM 74.1 °F 58.8 °F 59% 30.19 in 10.0 mi ESE 8.1 mph - N/A   Clear
4:35 PM 74.3 °F 59.5 °F 60% 30.18 in 10.0 mi ESE 4.6 mph - N/A   Clear
4:40 PM 74.3 °F 59.5 °F 60% 30.18 in 10.0 mi ESE 5.8 mph - N/A   Clear
4:57 PM 74.5 °F 59.4 °F 59% 30.17 in 10.0 mi East 6.9 mph - N/A   Clear
5:15 PM 74.3 °F 59.4 °F 60% 30.17 in 10.0 mi ESE 8.1 mph - N/A   Clear
5:35 PM 74.1 °F 59.0 °F 59% 30.17 in 10.0 mi East 8.1 mph - N/A   Clear
5:36 PM 74.1 °F 59.2 °F 59% 30.17 in 10.0 mi East 8.1 mph - N/A   Clear
5:57 PM 73.4 °F 59.5 °F 62% 30.17 in 10.0 mi ESE 6.9 mph - N/A   Clear
6:16 PM 72.9 °F 60.1 °F 64% 30.17 in 10.0 mi SSE 8.1 mph - N/A   Clear
6:35 PM 72.3 °F 60.3 °F 66% 30.17 in 10.0 mi SSE 8.1 mph - N/A   Clear
6:59 PM 71.1 °F 60.3 °F 69% 30.17 in 10.0 mi SSE 8.1 mph - N/A   Clear
7:16 PM 69.6 °F 60.4 °F 73% 30.17 in 10.0 mi SE 8.1 mph - N/A   Clear
7:35 PM 68.2 °F 60.3 °F 76% 30.17 in 10.0 mi South 9.2 mph - N/A   Clear
7:36 PM 68.2 °F 60.3 °F 76% 30.17 in 10.0 mi South 9.2 mph - N/A   Clear
7:55 PM 65.7 °F 60.3 °F 83% 30.17 in 10.0 mi ESE 4.6 mph - N/A   Clear
8:00 PM 65.3 °F 60.1 °F 83% 30.17 in 10.0 mi SE 4.6 mph - N/A   Clear
8:17 PM 65.1 °F 60.6 °F 85% 30.17 in 10.0 mi Calm Calm - N/A   Clear
8:35 PM 64.2 °F 59.9 °F 86% 30.17 in 10.0 mi Calm Calm - N/A   Clear
8:36 PM 64.2 °F 59.9 °F 86% 30.17 in 10.0 mi Calm Calm - N/A   Clear
8:55 PM 63.0 °F 59.7 °F 89% 30.18 in 10.0 mi WNW 5.8 mph - N/A   Clear
8:56 PM 62.8 °F 59.9 °F 90% 30.18 in 10.0 mi WNW 4.6 mph - N/A   Clear
9:18 PM 61.7 °F 59.5 °F 93% 30.18 in 10.0 mi Calm Calm - N/A   Clear
9:36 PM 61.5 °F 59.4 °F 93% 30.18 in 10.0 mi Calm Calm - N/A   Clear
9:55 PM 61.2 °F 59.5 °F 94% 30.19 in 10.0 mi Calm Calm - N/A   Clear
9:56 PM 61.2 °F 59.5 °F 94% 30.19 in 10.0 mi Calm Calm - N/A   Clear
10:19 PM 60.3 °F 58.3 °F 93% 30.18 in 10.0 mi Calm Calm - N/A   Clear
10:36 PM 60.3 °F 58.5 °F 94% 30.19 in 10.0 mi Calm Calm - N/A   Clear
10:55 PM 59.5 °F 57.9 °F 94% 30.18 in 10.0 mi Calm Calm - N/A   Clear
10:56 PM 59.5 °F 57.9 °F 94% 30.18 in 10.0 mi Calm Calm - N/A   Clear
11:15 PM 58.3 °F 56.8 °F 95% 30.19 in 10.0 mi Calm Calm - N/A   Clear
11:19 PM 58.8 °F 57.4 °F 95% 30.19 in 10.0 mi Calm Calm - N/A   Clear
11:37 PM 58.6 °F 57.2 °F 95% 30.19 in 10.0 mi Calm Calm - N/A   Clear
11:55 PM 58.5 °F 57.0 °F 95% 30.19 in 10.0 mi Calm Calm - N/A   Clear
11:56 PM 58.3 °F 57.0 °F 96% 30.19 in 10.0 mi Calm Calm - N/A   Clear